Weather History for Spokane Fairchild, WA

Change the Weather History Date:

Friday, March 8, 2013

  Actual Average Record
Temperature  
Mean Temperature 32 °F -  
Max Temperature 39 °F 43 °F 62 °F (2004)
Min Temperature 26 °F 28 °F 15 °F (2002)
Degree Days  
Heating Degree Days 32    
Moisture  
Dew Point 31 °F    
Average Humidity 98    
Maximum Humidity 100    
Minimum Humidity 81    
Precipitation  
Precipitation 0.00 in - - ()
Sea Level Pressure  
Sea Level Pressure 30.04 in    
Wind  
Wind Speed 5 mph (NNE)    
Max Wind Speed 10 mph    
Max Gust Speed -    
Visibility 4 miles    
Events Fog    
Averages and records for this station are not official NWS values.
T = Trace of Precipitation, MM = Missing Value Source: NWS Daily Summary

Daily Weather History Graph

Daily Weather History Graph

Search for Another Location

Airport:

Trip Planner

Search our weather history database for the weather conditions in past years. The results will help you decide how hot, cold, wet, or windy it might be!

Date:

Astronomy

Mar. 08, 2013 Rise Set
Actual Time 6:16 AM PST 5:46 PM PST
Civil Twilight 5:46 AM PST 6:17 PM PST
Nautical Twilight 5:10 AM PST 6:52 PM PST
Astronomical Twilight 4:34 AM PST 7:29 PM PST
Moon 4:15 AM PST (3/8) 2:36 PM PST (3/8)
Length of Visible Light 12h 30m
Length of Day
11h 29m
Waning Crescent, 11% of the Moon is Illuminated
Mar 8
Waning Crescent
Mar 11
New
Mar 19
First Quarter
Mar 27
Full
Apr 2
Last Quarter

Hourly Weather History & Observations

Time (PST) Temp. Windchill Dew Point Humidity Pressure Visibility Wind Dir Wind Speed Gust Speed Precip Events Conditions
12:06 AM 28.4 °F 23.3 °F 28.4 °F 100% 30.02 in 0.8 mi NNE 4.6 mph - N/A   Mist
12:23 AM 30.2 °F 24.3 °F 28.4 °F 93% 30.02 in 0.8 mi NNE 5.8 mph - N/A   Mist
12:25 AM 30.2 °F 24.3 °F 30.2 °F 100% 30.02 in 1.0 mi NNE 5.8 mph - N/A   Mist
12:26 AM 30.2 °F 24.3 °F 30.2 °F 100% 30.02 in 1.0 mi NNE 5.8 mph - N/A   Mist
12:36 AM 30.2 °F 24.3 °F 30.2 °F 100% 30.02 in 1.2 mi NNE 5.8 mph - N/A   Partly Cloudy
12:38 AM 30.2 °F 23.4 °F 30.2 °F 100% 30.02 in 1.5 mi NNE 6.9 mph - N/A   Partly Cloudy
12:39 AM 30.2 °F 23.4 °F 30.2 °F 100% 30.02 in 1.8 mi NNE 6.9 mph - N/A   Partly Cloudy
12:41 AM 30.2 °F 24.3 °F 30.2 °F 100% 30.01 in 2.0 mi NNE 5.8 mph - N/A   Partly Cloudy
12:43 AM 32.0 °F 26.4 °F 30.2 °F 93% 30.01 in 3.0 mi NNE 5.8 mph - N/A   Clear
12:47 AM 32.0 °F 26.4 °F 30.2 °F 93% 30.02 in 2.5 mi NNE 5.8 mph - N/A   Clear
12:51 AM 32.0 °F 28.7 °F 32.0 °F 100% 30.02 in 2.0 mi NNE 3.5 mph - N/A   Partly Cloudy
12:53 AM 32.0 °F - 32.0 °F 100% 30.02 in 1.8 mi NNE 2.3 mph - N/A   Partly Cloudy
12:55 AM 32.0 °F 28.7 °F 30.2 °F 93% 30.02 in 1.5 mi NNE 3.5 mph - N/A   Scattered Clouds
12:58 AM 30.6 °F - 30.2 °F 99% 30.07 in 1.5 mi Variable 1.2 mph - 0.00 in   Scattered Clouds
1:01 AM 30.2 °F - 30.2 °F 100% 30.02 in 1.5 mi Calm Calm - N/A   Mostly Cloudy
1:04 AM 30.2 °F - 30.2 °F 100% 30.02 in 1.2 mi Variable 1.2 mph - N/A   Mostly Cloudy
1:08 AM 30.2 °F 26.7 °F 30.2 °F 100% 30.02 in 1.0 mi NE 3.5 mph - N/A   Mist
1:13 AM 30.2 °F 25.4 °F 30.2 °F 100% 30.02 in 0.8 mi NNE 4.6 mph - N/A   Mist
1:14 AM 30.2 °F 24.3 °F 30.2 °F 100% 30.02 in 0.8 mi NNE 5.8 mph - N/A   Mist
1:17 AM 30.2 °F 24.3 °F 30.2 °F 100% 30.02 in 0.8 mi NNE 5.8 mph - N/A   Mist
1:18 AM 30.2 °F 24.3 °F 30.2 °F 100% 30.02 in 0.5 mi NNE 5.8 mph - N/A Fog Light Freezing Fog
1:19 AM 30.2 °F 24.3 °F 30.2 °F 100% 30.02 in 0.5 mi NNE 5.8 mph - N/A Fog Light Freezing Fog
1:58 AM 29.3 °F - 29.1 °F 99% 30.08 in 0.5 mi North 2.3 mph - N/A Fog Light Freezing Fog
2:58 AM 28.9 °F - 28.8 °F 99% 30.07 in 0.5 mi NE 2.3 mph - N/A Fog Light Freezing Fog
3:58 AM 28.0 °F 24.2 °F 27.7 °F 99% 30.07 in 0.8 mi North 3.5 mph - N/A   Mist
4:27 AM 26.6 °F 21.2 °F 26.6 °F 100% 30.06 in 1.0 mi North 4.6 mph - N/A   Mist
4:54 AM 26.6 °F 22.6 °F 26.6 °F 100% 30.00 in 0.8 mi NNE 3.5 mph - N/A   Light Freezing Drizzle
4:58 AM 26.6 °F 21.2 °F 26.6 °F 100% 30.07 in 0.8 mi NNE 4.6 mph - 0.00 in   Light Freezing Drizzle
4:59 AM 26.6 °F 21.2 °F 26.6 °F 100% 30.00 in 0.8 mi NNE 4.6 mph - N/A   Mist
5:07 AM 26.6 °F 20.0 °F 26.6 °F 100% 30.00 in 0.8 mi NNE 5.8 mph - N/A   Mist
5:08 AM 26.6 °F 20.0 °F 26.6 °F 100% 30.00 in 0.8 mi NNE 5.8 mph - N/A   Mist
5:58 AM 27.9 °F 21.5 °F 27.7 °F 99% 30.08 in 0.8 mi NE 5.8 mph - N/A   Mist
6:28 AM 28.4 °F 22.2 °F 28.4 °F 100% 30.08 in 0.2 mi North 5.8 mph - N/A Fog Light Freezing Fog
6:58 AM 27.5 °F 20.2 °F 27.3 °F 99% 30.09 in 0.2 mi NNE 6.9 mph - N/A Fog Light Freezing Fog
6:59 AM 26.6 °F 20.0 °F 26.6 °F 100% 30.01 in 0.2 mi NNE 5.8 mph - N/A Fog Light Freezing Fog
7:55 AM 26.6 °F 20.0 °F 26.6 °F 100% 30.02 in 0.2 mi North 5.8 mph - N/A Fog Light Freezing Fog
7:56 AM 26.6 °F 20.0 °F 26.6 °F 100% 30.02 in 0.5 mi North 5.8 mph - N/A Fog Light Freezing Fog
7:58 AM 27.3 °F 19.9 °F 27.0 °F 99% 30.10 in 0.5 mi North 6.9 mph - N/A Fog Light Freezing Fog
8:02 AM 26.6 °F 20.0 °F 26.6 °F 100% 30.02 in 0.2 mi North 5.8 mph - N/A Fog Light Freezing Fog
8:14 AM 28.4 °F 22.2 °F 28.4 °F 100% 30.02 in 0.5 mi NNE 5.8 mph - N/A Fog Light Freezing Fog
8:16 AM 28.4 °F 22.2 °F 28.4 °F 100% 30.02 in 0.5 mi North 5.8 mph - N/A Fog Light Freezing Fog
8:22 AM 28.4 °F 22.2 °F 28.4 °F 100% 30.02 in 0.5 mi NNE 5.8 mph - N/A Fog Light Freezing Fog
8:24 AM 28.4 °F 23.3 °F 28.4 °F 100% 30.02 in 0.2 mi NNE 4.6 mph - N/A Fog Light Freezing Fog
8:48 AM 28.4 °F 23.3 °F 28.4 °F 100% 30.02 in 0.5 mi North 4.6 mph - N/A Fog Light Freezing Fog
8:50 AM 28.4 °F 23.3 °F 28.4 °F 100% 30.02 in 0.2 mi NNE 4.6 mph - N/A Fog Light Freezing Fog
8:58 AM 28.4 °F 23.3 °F 28.2 °F 99% 30.10 in 0.2 mi NNE 4.6 mph - N/A Fog Light Freezing Fog
9:00 AM 28.4 °F 23.3 °F 28.4 °F 100% 30.02 in 0.5 mi North 4.6 mph - N/A Fog Light Freezing Fog
9:09 AM 28.4 °F 22.2 °F 28.4 °F 100% 30.03 in 0.2 mi North 5.8 mph - N/A Fog Light Freezing Fog
9:12 AM 28.4 °F 22.2 °F 28.4 °F 100% 30.02 in 0.5 mi North 5.8 mph - N/A Fog Light Freezing Fog
9:35 AM 28.4 °F 22.2 °F 28.4 °F 100% 30.03 in 0.2 mi NNE 5.8 mph - N/A Fog Light Freezing Fog
9:42 AM 30.2 °F 26.7 °F 28.4 °F 93% 30.03 in 0.5 mi NNE 3.5 mph - N/A Fog Light Freezing Fog
9:52 AM 30.2 °F 25.4 °F 30.2 °F 100% 30.03 in 0.5 mi NNE 4.6 mph - N/A Fog Light Freezing Fog
9:58 AM 29.7 °F 24.7 °F 29.5 °F 99% 30.11 in 0.5 mi NNE 4.6 mph - N/A Fog Light Freezing Fog
10:12 AM 30.2 °F 26.7 °F 30.2 °F 100% 30.03 in 0.2 mi North 3.5 mph - N/A Fog Light Freezing Fog
10:23 AM 32.0 °F 26.4 °F 32.0 °F 100% 30.03 in 0.5 mi NNW 5.8 mph - N/A Fog Light Freezing Fog
10:39 AM 32.0 °F 26.4 °F 32.0 °F 100% 30.03 in 0.5 mi North 5.8 mph - N/A Fog Light Freezing Fog
10:58 AM 31.3 °F 26.6 °F 30.9 °F 99% 30.11 in 0.5 mi North 4.6 mph - N/A Fog Light Freezing Fog
11:23 AM 32.0 °F 26.4 °F 32.0 °F 100% 30.03 in 0.8 mi North 5.8 mph - N/A   Mist
11:25 AM 32.0 °F 26.4 °F 32.0 °F 100% 30.03 in 0.8 mi North 5.8 mph - N/A   Mist
11:27 AM 32.0 °F 26.4 °F 32.0 °F 100% 30.03 in 1.0 mi North 5.8 mph - N/A   Mist
11:28 AM 32.0 °F 27.5 °F 32.0 °F 100% 30.03 in 1.0 mi North 4.6 mph - N/A   Mist
11:31 AM 32.0 °F 28.7 °F 32.0 °F 100% 30.03 in 1.0 mi NNW 3.5 mph - N/A   Mist
11:33 AM 32.0 °F 27.5 °F 32.0 °F 100% 30.03 in 1.0 mi Variable 4.6 mph - N/A   Mist
11:36 AM 32.0 °F 27.5 °F 32.0 °F 100% 30.03 in 0.8 mi Variable 4.6 mph - N/A   Mist
11:40 AM 32.0 °F 26.4 °F 32.0 °F 100% 30.03 in 0.8 mi North 5.8 mph - N/A   Mist
11:46 AM 32.0 °F 27.5 °F 32.0 °F 100% 30.03 in 1.0 mi North 4.6 mph - N/A   Mist
11:51 AM 32.0 °F 26.4 °F 32.0 °F 100% 30.03 in 1.0 mi NNW 5.8 mph - N/A   Mist
11:52 AM 32.0 °F 26.4 °F 32.0 °F 100% 30.03 in 1.2 mi NNW 5.8 mph - N/A   Overcast
11:54 AM 32.0 °F 26.4 °F 32.0 °F 100% 30.03 in 1.5 mi North 5.8 mph - N/A   Overcast
11:58 AM 32.7 °F 27.3 °F 32.5 °F 99% 30.11 in 2.0 mi Variable 5.8 mph - N/A   Overcast
11:59 AM 32.0 °F 27.5 °F 32.0 °F 100% 30.03 in 3.0 mi NNE 4.6 mph - N/A   Overcast
12:27 PM 32.0 °F 25.6 °F 32.0 °F 100% 30.02 in 9.0 mi North 6.9 mph - N/A   Overcast
12:39 PM 32.0 °F 26.4 °F 32.0 °F 100% 30.02 in 8.0 mi NE 5.8 mph - N/A   Overcast
12:49 PM 33.8 °F 30.8 °F 33.8 °F 100% 30.01 in 10.0 mi Variable 3.5 mph - N/A   Overcast
12:58 PM 34.7 °F 30.6 °F 34.3 °F 99% 30.09 in 10.0 mi NE 4.6 mph - 0.00 in   Overcast
12:59 PM 33.8 °F 29.6 °F 33.8 °F 100% 30.01 in 10.0 mi NNE 4.6 mph - N/A   Overcast
1:06 PM 33.8 °F 29.6 °F 33.8 °F 100% 30.01 in 10.0 mi North 4.6 mph - N/A   Overcast
1:08 PM 35.6 °F 30.7 °F 33.8 °F 93% 30.01 in 10.0 mi NNW 5.8 mph - N/A   Overcast
1:49 PM 35.6 °F 30.7 °F 35.6 °F 100% 30.01 in 10.0 mi NNW 5.8 mph - N/A   Overcast
1:58 PM 35.4 °F 29.7 °F 35.1 °F 99% 30.09 in 10.0 mi NNE 6.9 mph - 0.00 in   Overcast
1:59 PM 35.6 °F 31.7 °F 35.6 °F 100% 30.02 in 10.0 mi NNE 4.6 mph - N/A   Overcast
2:14 PM 35.6 °F 31.7 °F 35.6 °F 100% 30.02 in 10.0 mi Variable 4.6 mph - N/A   Overcast
2:49 PM 35.6 °F - 35.6 °F 100% 30.02 in 10.0 mi NNW 2.3 mph - N/A   Overcast
2:58 PM 36.7 °F - 36.0 °F 97% 30.09 in 10.0 mi Variable 1.2 mph - 0.00 in   Overcast
3:06 PM 37.4 °F - 35.6 °F 93% 30.02 in 10.0 mi ENE 2.3 mph - N/A   Overcast
3:26 PM 37.4 °F - 35.6 °F 93% 30.01 in 10.0 mi Calm Calm - N/A   Scattered Clouds
3:28 PM 37.4 °F - 37.4 °F 100% 30.01 in 10.0 mi Calm Calm - N/A   Mostly Cloudy
3:29 PM 37.4 °F - 37.4 °F 100% 30.01 in 10.0 mi Calm Calm - N/A   Scattered Clouds
3:58 PM 38.7 °F - 37.4 °F 95% 30.08 in 10.0 mi Calm Calm - N/A   Clear
4:58 PM 39.9 °F - 34.5 °F 81% 30.08 in 10.0 mi South 1.2 mph - N/A   Clear
5:44 PM 39.2 °F - 33.8 °F 81% 30.02 in 10.0 mi East 2.3 mph - N/A   Clear
5:53 PM 37.4 °F - 32.0 °F 81% 30.02 in 10.0 mi East 2.3 mph - N/A   Clear
5:58 PM 37.2 °F - 33.4 °F 86% 30.09 in 10.0 mi East 2.3 mph - 0.00 in   Clear
6:58 PM 35.2 °F 32.4 °F 33.1 °F 92% 30.11 in 10.0 mi SSE 3.5 mph - N/A   Clear
7:56 PM 35.6 °F 31.7 °F 32.0 °F 87% 30.06 in 10.0 mi South 4.6 mph - N/A   Clear
7:58 PM 34.9 °F 30.8 °F 33.4 °F 94% 30.14 in 10.0 mi South 4.6 mph - N/A   Clear
8:06 PM 32.0 °F 27.5 °F 32.0 °F 100% 30.06 in 10.0 mi SW 4.6 mph - N/A   Clear
8:58 PM 31.8 °F - 31.3 °F 98% 30.15 in 10.0 mi South 2.3 mph - 0.00 in   Scattered Clouds
9:18 PM 32.0 °F 27.5 °F 32.0 °F 100% 30.07 in 10.0 mi South 4.6 mph - N/A   Mostly Cloudy
9:34 PM 32.0 °F 27.5 °F 32.0 °F 100% 30.07 in 10.0 mi South 4.6 mph - N/A   Mostly Cloudy
9:58 PM 32.5 °F 27.1 °F 30.9 °F 94% 30.15 in 10.0 mi SW 5.8 mph - 0.00 in   Overcast
10:58 PM 32.4 °F 24.0 °F 28.9 °F 87% 30.16 in 10.0 mi SW 10.4 mph - N/A   Overcast
11:58 PM 33.1 °F 25.5 °F 29.3 °F 86% 30.17 in 10.0 mi WSW 9.2 mph - N/A   Overcast